Location: Brabourne
(51.1333°N, 1.0000°E)
Time: 08:19:34
(UTC+00:00)

NOSS 3-1 (A) - Pass Details

Date: 20 June 2021
Orbit: 729 x 1483 km, 63.4° (Epoch: 23 July)

Event Time Altitude Azimuth Distance (km) Brightness Sun altitude
Exits shadow 00:42:42 22° 200° (SSW) 1,719 4.2 -14.8°
Maximum altitude 00:46:13 62° 126° (SE) 987 3.4 -14.7°
Drops below altitude 10° 00:52:31 10° 48° (NE) 2,787 6.7 -14.5°
Sets 00:55:24 0° 45° (NE) 3,863 7.7 -14.4°
